Coleman, TX

11:45 PM CDT on September 29, 2016 (GMT -0500)
Coleman Municipal

Weather History for KCOM - May, 2014

Change the Weather History Date:

Sunday, May 25, 2014

  Actual Average (KABI) Record (KABI)
Temperature  
Mean Temperature 66 °F 75 °F  
Max Temperature 70 °F 87 °F 102 °F (1989)
Min Temperature 62 °F 64 °F 46 °F (1947)
Degree Days  
Heating Degree Days 0 0  
Month to date heating degree days 13  
Since 1 July heating degree days 2555  
Cooling Degree Days 1 11  
Month to date cooling degree days 198  
Year to date cooling degree days 331  
Growing Degree Days 16 (Base 50)    
Moisture  
Dew Point 61 °F    
Average Humidity 85    
Maximum Humidity 96    
Minimum Humidity 69    
Precipitation  
Precipitation 0.36 in 0.12 in 1.54 in (1919)
Month to date precipitation 2.42  
Year to date precipitation 8.18  
Sea Level Pressure  
Sea Level Pressure 30.02 in    
Wind  
Wind Speed 8 mph (East)    
Max Wind Speed 18 mph    
Max Gust Speed 25 mph    
Visibility 8 miles    
Events Rain , Thunderstorm    
T = Trace of Precipitation, MM = Missing Value Source: NWS Daily Summary

Daily Weather History Graph

Daily Weather History Graph

Search for Another Location

Airport or City:

Trip Planner

Search our weather history database for the weather conditions in past years. The results will help you decide how hot, cold, wet, or windy it might be!

Date:

Astronomy

May. 25, 2014 Rise Set
Actual Time 6:35 AM CDT 8:34 PM CDT
Civil Twilight 6:07 AM CDT 9:01 PM CDT
Nautical Twilight 5:34 AM CDT 9:35 PM CDT
Astronomical Twilight 4:59 AM CDT 10:10 PM CDT
Moon 4:28 AM CDT (5/25) 5:46 PM CDT (5/25)
Length of Visible Light 14h 54m
Length of Day
13h 59m
Waning Crescent, 10% of the Moon is Illuminated
May 25
Waning Crescent
May 28
New
Jun 5
First Quarter
Jun 12
Full
Jun 19
Last Quarter

Hourly Weather History & Observations

Time (CDT) Temp. Dew Point Humidity Pressure Visibility Wind Dir Wind Speed Gust Speed Precip Events Conditions
12:15 AM 63.5 °F 60.3 °F 89% 30.02 in 4.0 mi North 5.8 mph - 0.03 in Rain , Thunderstorm Heavy Thunderstorms and Rain
12:35 AM 63.9 °F 60.4 °F 89% 30.03 in 7.0 mi NNE 4.6 mph - 0.06 in Rain , Thunderstorm Thunderstorms and Rain
12:55 AM 63.5 °F 61.3 °F 93% 30.04 in 7.0 mi Calm Calm - 0.09 in Rain , Thunderstorm Light Thunderstorms and Rain
1:15 AM 63.1 °F 61.7 °F 95% 30.03 in 7.0 mi Calm Calm - 0.02 in Rain , Thunderstorm Light Thunderstorms and Rain
1:35 AM 63.5 °F 61.7 °F 94% 30.07 in 7.0 mi WSW 16.1 mph - 0.05 in Rain , Thunderstorm Thunderstorms and Rain
1:55 AM 63.5 °F 61.5 °F 93% 30.03 in 7.0 mi Calm Calm - 0.07 in Rain , Thunderstorm Light Thunderstorms and Rain
2:15 AM 63.9 °F 62.1 °F 94% 30.03 in 7.0 mi East 4.6 mph - 0.02 in Rain , Thunderstorm Thunderstorms and Rain
2:35 AM 63.5 °F 61.9 °F 94% 30.02 in 7.0 mi ENE 6.9 mph - 0.04 in Rain Rain
2:55 AM 63.5 °F 62.1 °F 95% 29.99 in 7.0 mi NE 12.7 mph - 0.06 in Rain , Thunderstorm Rain
3:15 AM 63.5 °F 61.7 °F 94% 29.95 in 10.0 mi NNE 11.5 mph 23.0 mph 0.01 in Rain Light Rain
3:35 AM 63.7 °F 61.5 °F 93% 29.99 in 10.0 mi South 9.2 mph - 0.02 in   Unknown
3:55 AM 64.2 °F 60.6 °F 88% 30.00 in 7.0 mi South 5.8 mph - 0.03 in Rain Light Rain
4:15 AM 63.7 °F 61.5 °F 93% 30.02 in 7.0 mi SW 6.9 mph - 0.01 in Rain , Thunderstorm Light Thunderstorms and Rain
4:35 AM 63.5 °F 61.7 °F 94% 30.04 in 7.0 mi SSW 9.2 mph - 0.02 in Rain , Thunderstorm Rain
4:55 AM 63.5 °F 61.7 °F 94% 30.07 in 7.0 mi SSW 11.5 mph 18.4 mph 0.03 in Rain , Thunderstorm Rain
5:15 AM 63.1 °F 61.7 °F 95% 30.08 in 7.0 mi SSW 9.2 mph - 0.01 in Rain , Thunderstorm Thunderstorms and Rain
5:35 AM 63.1 °F 61.7 °F 95% 30.07 in 7.0 mi South 9.2 mph - 0.02 in Rain , Thunderstorm Rain
5:55 AM 63.1 °F 61.7 °F 95% 30.07 in 7.0 mi South 8.1 mph - 0.02 in Rain Rain
6:15 AM 63.1 °F 61.7 °F 95% 30.06 in 7.0 mi South 10.4 mph - N/A Rain , Thunderstorm Thunderstorms and Rain
6:35 AM 63.0 °F 61.7 °F 96% 30.03 in 5.0 mi East 6.9 mph - 0.01 in Rain , Thunderstorm Thunderstorms and Rain
6:55 AM 62.8 °F 61.7 °F 96% 29.95 in 7.0 mi East 18.4 mph 25.3 mph 0.01 in Rain Light Rain
7:15 AM 62.8 °F 61.2 °F 94% 29.95 in 10.0 mi East 8.1 mph 20.7 mph 0.01 in Rain Light Rain
7:35 AM 63.0 °F 61.0 °F 93% 29.99 in 7.0 mi SE 6.9 mph - 0.02 in   Unknown
7:55 AM 63.1 °F 60.8 °F 92% 29.99 in 7.0 mi Calm Calm - 0.02 in   Unknown
8:15 AM 63.7 °F 60.8 °F 90% 29.99 in 7.0 mi SE 5.8 mph - 0.01 in   Unknown
8:35 AM 64.6 °F 60.8 °F 88% 29.98 in 7.0 mi SE 4.6 mph - 0.02 in   Unknown
8:55 AM 66.2 °F 60.3 °F 81% 30.00 in 10.0 mi SE 3.5 mph - 0.03 in   Unknown
9:15 AM 68.0 °F 59.7 °F 75% 30.00 in 10.0 mi ESE 6.9 mph - N/A   Unknown
9:55 AM 69.8 °F 60.8 °F 73% 30.04 in 10.0 mi North 6.9 mph - N/A   Unknown
10:15 AM 70.0 °F 60.6 °F 72% 30.04 in 10.0 mi NNW 11.5 mph - N/A   Unknown
10:35 AM 69.4 °F 60.4 °F 73% 30.07 in 10.0 mi NW 15.0 mph 19.6 mph N/A   Unknown
10:55 AM 70.2 °F 60.1 °F 70% 30.07 in 10.0 mi NNW 12.7 mph 18.4 mph N/A   Unknown
11:15 AM 69.8 °F 60.3 °F 72% 30.08 in 10.0 mi NW 9.2 mph - N/A   Unknown
11:55 AM 67.5 °F 61.2 °F 80% 30.06 in 7.0 mi North 5.8 mph - N/A Rain Light Rain
12:15 PM 67.6 °F 60.6 °F 78% 30.06 in 7.0 mi NNE 9.2 mph - N/A Thunderstorm Unknown
12:35 PM 68.0 °F 61.0 °F 78% 30.08 in 7.0 mi North 5.8 mph - N/A Rain Light Rain
12:55 PM 67.3 °F 61.7 °F 82% 30.11 in 5.0 mi NW 6.9 mph - N/A Rain Rain
1:15 PM 66.2 °F 61.2 °F 84% 30.10 in 5.0 mi NNW 8.1 mph - N/A Rain Light Rain
1:35 PM 65.8 °F 61.0 °F 84% 30.10 in 5.0 mi NNW 8.1 mph - N/A Rain Rain
1:55 PM 64.9 °F 61.0 °F 87% 30.08 in 5.0 mi NNW 11.5 mph - N/A Rain Rain
2:15 PM 64.8 °F 61.2 °F 88% 30.07 in 5.0 mi North 10.4 mph - N/A Rain , Thunderstorm Rain
2:35 PM 64.4 °F 61.0 °F 89% 30.08 in 7.0 mi NNW 8.1 mph - N/A Rain Rain
2:55 PM 63.9 °F 60.8 °F 90% 30.05 in 5.0 mi North 9.2 mph - N/A Rain , Thunderstorm Thunderstorms and Rain
3:15 PM 63.9 °F 59.5 °F 86% 30.06 in 7.0 mi Calm Calm - N/A Rain , Thunderstorm Thunderstorms and Rain
3:35 PM 63.0 °F 59.4 °F 88% 29.99 in 2.0 mi ENE 18.4 mph - N/A Rain , Thunderstorm Heavy Thunderstorms and Rain
3:55 PM 63.0 °F 58.3 °F 85% 30.02 in 7.0 mi North 12.7 mph 18.4 mph N/A Rain , Thunderstorm Light Thunderstorms and Rain
4:15 PM 65.7 °F 58.8 °F 79% 30.01 in 10.0 mi North 9.2 mph - N/A Thunderstorm Thunderstorm
4:35 PM 67.5 °F 59.0 °F 74% 30.02 in 10.0 mi North 11.5 mph - N/A   Unknown
4:55 PM 66.6 °F 59.5 °F 78% 30.01 in 10.0 mi North 10.4 mph - N/A Rain Rain
5:15 PM 66.2 °F 60.8 °F 83% 30.00 in 10.0 mi ENE 8.1 mph - N/A Rain Light Rain
5:35 PM 67.1 °F 61.2 °F 81% 29.97 in 10.0 mi East 11.5 mph - N/A   Unknown
5:55 PM 67.1 °F 59.4 °F 76% 29.96 in 10.0 mi East 15.0 mph - N/A   Unknown
6:15 PM 67.1 °F 58.6 °F 74% 29.91 in 10.0 mi East 18.4 mph - N/A   Unknown
6:35 PM 67.1 °F 58.8 °F 75% 29.95 in 10.0 mi ESE 15.0 mph 20.7 mph N/A   Unknown
6:55 PM 68.2 °F 58.6 °F 71% 29.95 in 10.0 mi ESE 16.1 mph 21.9 mph N/A   Unknown
7:15 PM 68.0 °F 57.4 °F 69% 29.95 in 10.0 mi ESE 16.1 mph 19.6 mph N/A   Unknown
7:35 PM 67.1 °F 58.1 °F 73% 29.96 in 10.0 mi ESE 12.7 mph 23.0 mph N/A   Unknown
7:55 PM 67.1 °F 58.8 °F 75% 29.97 in 10.0 mi ESE 11.5 mph - N/A Thunderstorm Unknown
8:15 PM 66.7 °F 59.2 °F 77% 29.98 in 10.0 mi East 11.5 mph - N/A   Unknown
8:35 PM 65.8 °F 59.0 °F 79% 29.98 in 10.0 mi ESE 9.2 mph - N/A   Unknown
9:15 PM 64.9 °F 60.8 °F 86% 30.00 in 10.0 mi SSE 10.4 mph - N/A   Unknown
9:35 PM 65.1 °F 61.7 °F 89% 30.01 in 10.0 mi SE 10.4 mph - N/A   Unknown
9:55 PM 65.3 °F 62.1 °F 89% 30.01 in 10.0 mi SE 6.9 mph - N/A   Unknown
10:15 PM 65.7 °F 62.6 °F 90% 30.02 in 10.0 mi SE 8.1 mph - N/A   Unknown
10:35 PM 65.8 °F 62.6 °F 89% 30.04 in 10.0 mi SE 10.4 mph - N/A   Unknown
10:55 PM 66.2 °F 62.6 °F 88% 30.05 in 10.0 mi SE 9.2 mph - N/A Thunderstorm Thunderstorm
11:15 PM 66.7 °F 61.7 °F 84% 30.05 in 10.0 mi SSE 4.6 mph 16.1 mph N/A Rain Light Rain
11:35 PM 66.2 °F 61.9 °F 86% 30.05 in 7.0 mi ESE 10.4 mph - N/A Rain Heavy Rain
11:55 PM 65.5 °F 62.2 °F 89% 30.04 in 10.0 mi SE 10.4 mph - N/A Rain Light Rain